This is the latest recevied weather packets stored in our database for station/object N8HKU-5. If no packets are shown the sender has not sent any weather packets the latest 10 day(s).
| Time | Temp. | Humidity | Pressure | Rain* | Wind** | Luminosity | Snow |
|---|---|---|---|---|---|---|---|
| 1777675954 | 8.33° C | 62% | 1012.3 hPa | 0 mm | - | - | - |
| 1777675355 | 8.33° C | 62% | 1012.3 hPa | 0 mm | - | - | - |
| 1777674754 | 8.89° C | 59% | 1012.3 hPa | 0 mm | - | - | - |
| 1777674156 | 8.89° C | 59% | 1012.1 hPa | 0 mm | - | - | - |
| 1777673555 | 8.89° C | 57% | 1012 hPa | 0 mm | - | - | - |
| 1777672954 | 8.89° C | 55% | 1012.1 hPa | 0 mm | - | - | - |
| 1777672354 | 9.44° C | 54% | 1011.9 hPa | 0 mm | - | - | - |
| 1777671754 | 9.44° C | 53% | 1011.9 hPa | 0 mm | - | - | - |
| 1777671154 | 9.44° C | 55% | 1011.8 hPa | 0 mm | - | - | - |
| 1777670554 | 9.44° C | 53% | 1011.6 hPa | 0 mm | - | - | - |
| 1777669954 | 9.44° C | 55% | 1011.6 hPa | 0 mm | - | - | - |
| 1777669354 | 9.44° C | 55% | 1011.6 hPa | 0 mm | - | - | - |
| 1777668757 | 10° C | 54% | 1011.5 hPa | 0 mm | - | - | - |
| 1777668155 | 10° C | 54% | 1011.5 hPa | 0 mm | - | - | - |
| 1777667554 | 9.44° C | 53% | 1011.5 hPa | 0 mm | - | - | - |
| 1777666954 | 9.44° C | 53% | 1011.5 hPa | 0 mm | - | - | - |
| 1777666354 | 9.44° C | 51% | 1011.5 hPa | 0 mm | - | - | - |
| 1777665754 | 10° C | 52% | 1011.4 hPa | 0 mm | - | - | - |
| 1777665154 | 10.56° C | 50% | 1011.4 hPa | 0 mm | - | - | - |
| 1777664555 | 10° C | 52% | 1011.3 hPa | 0 mm | - | - | - |
| 1777663954 | 10° C | 53% | 1011.4 hPa | 0 mm | - | - | - |
| 1777663354 | 9.44° C | 55% | 1011.4 hPa | 0 mm | - | - | - |
| 1777662754 | 8.89° C | 57% | 1011.3 hPa | 0 mm | - | - | - |
| 1777662154 | 9.44° C | 57% | 1011.3 hPa | 0 mm | - | - | - |
| 1777661554 | 9.44° C | 54% | 1011.2 hPa | 0 mm | - | - | - |
* Rain latest hour (hover to see other rain measurements)
** Current wind speed in m/s (hover to see current wind gust speed)